Location: Arclight Observatory
(36.5667°N, 87.3333°W)
Time: 16:26:12
(UTC-05:00)

ISS - Visible Passes

Search period start: 31 July 2015 00:00
Search period end: 10 August 2015 00:00
Orbit: 401 x 403 km, 51.6° (Epoch: 31 July)

Date Brightness Start Highest point End Pass type
(mag) Time Alt. Az. Time Alt. Az. Time Alt. Az.
31 Jul -1.0 03:46:27 10° NNW 03:49:13 25° NNE 03:52:01 10° E visible
31 Jul -2.5 05:22:46 10° WNW 05:25:40 29° SW 05:28:31 10° SSE visible
31 Jul -2.3 20:24:10 10° S 20:26:52 25° SE 20:29:37 10° ENE visible
31 Jul -1.2 22:00:22 10° W 22:03:15 28° NNW 22:06:08 10° NNE visible
01 Aug -0.2 02:55:02 14° N 02:56:01 16° NNE 02:58:10 10° ENE visible
01 Aug -3.5 04:29:31 10° NW 04:32:46 66° SW 04:35:59 10° SE visible
01 Aug -2.5 21:06:58 10° WSW 21:10:10 53° NW 21:13:22 10° NE visible
01 Aug 0.2 22:46:23 10° NW 22:47:13 11° NNW 22:48:00 10° N visible
02 Aug -0.8 03:42:22 15° ESE 03:42:22 15° ESE 03:42:59 10° ESE visible
02 Aug -1.3 05:15:19 11° WSW 05:15:53 12° SW 05:17:00 10° SSW visible
02 Aug -0.1 21:51:50 10° WNW 21:53:55 16° NNW 21:55:58 10° NNE visible
03 Aug -0.8 20:57:56 10° W 21:00:42 24° NNW 21:03:26 10° NNE visible
05 Aug -0.2 20:49:30 10° WNW 20:51:20 14° NNW 20:53:08 10° N visible
